Location: Madden
(51.3728°N, 114.3297°W)
Time: 06:56:41
(UTC+00:00)

PCSat - Pass Details

Date: 11 December 2023
Orbit: 784 x 791 km, 67.0° (Epoch: 02 March)

Event Time Altitude Azimuth Distance (km) Brightness Sun altitude
Exits shadow 14:28:15 10° 318° (NW) 2,402 11.5 -9.3°
Reaches altitude 10° 14:28:26 10° 319° (NW) 2,361 11.5 -9.3°
Maximum altitude 14:31:35 15° 355° (N) 2,010 11.4 -8.9°
Drops below altitude 10° 14:34:44 10° 31° (NNE) 2,365 12.1 -8.4°
Sets 14:38:14 0° 54° (NE) 3,296 13.2 -7.9°
